This is the latest recevied weather packets stored in our database for station/object KJ5JYX. If no packets are shown the sender has not sent any weather packets the latest 10 day(s).
| Time | Temp. | Humidity | Pressure | Rain* | Wind** | Luminosity | Snow |
|---|---|---|---|---|---|---|---|
| 1777761939 | 23.33° C | 42% | 1021.1 hPa | 0 mm | - | 44 W/m² | - |
| 1777761637 | 23.33° C | 42% | 1021 hPa | 0 mm | - | 46 W/m² | - |
| 1777761334 | 23.33° C | 38% | 1021 hPa | 0 mm | - | 51 W/m² | - |
| 1777761033 | 23.33° C | 41% | 1021 hPa | 0 mm | - | 55 W/m² | - |
| 1777760729 | 23.33° C | 40% | 1021 hPa | 0 mm | - | 72 W/m² | - |
| 1777760426 | 23.33° C | 38% | 1021.1 hPa | 0 mm | - | 75 W/m² | - |
| 1777760121 | 23.33° C | 41% | 1021.2 hPa | 0 mm | - | 73 W/m² | - |
| 1777759819 | 23.33° C | 45% | 1021.3 hPa | 0 mm | - | 154 W/m² | - |
| 1777759514 | 23.33° C | 46% | 1021.2 hPa | 0 mm | - | 383 W/m² | - |
| 1777759211 | 22.78° C | 39% | 1021.3 hPa | 0 mm | - | 276 W/m² | - |
| 1777758909 | 22.22° C | 46% | 1021.3 hPa | 0 mm | - | 313 W/m² | - |
| 1777758605 | 22.78° C | 47% | 1021.3 hPa | 0 mm | - | 78 W/m² | - |
| 1777758302 | 24.44° C | 42% | 1021.2 hPa | 0 mm | - | 456 W/m² | - |
| 1777758000 | 24.44° C | 39% | 1021.3 hPa | 0 mm | - | 458 W/m² | - |
| 1777757696 | 24.44° C | 39% | 1021.2 hPa | 0 mm | - | 466 W/m² | - |
| 1777757394 | 23.89° C | 43% | 1021.4 hPa | 0 mm | - | 478 W/m² | - |
| 1777757093 | 22.78° C | 47% | 1021.4 hPa | 0 mm | - | 498 W/m² | - |
| 1777756790 | 23.89° C | 44% | 1021.6 hPa | 0 mm | - | 225 W/m² | - |
| 1777756485 | 23.89° C | 44% | 1021.6 hPa | 0 mm | - | 120 W/m² | - |
| 1777756183 | 23.89° C | 49% | 1021.6 hPa | 0 mm | - | 558 W/m² | - |
| 1777755880 | 24.44° C | 47% | 1021.7 hPa | 0 mm | - | 534 W/m² | - |
| 1777755577 | 24.44° C | 48% | 1022 hPa | 0 mm | - | 606 W/m² | - |
| 1777755273 | 23.89° C | 43% | 1021.9 hPa | 0 mm | - | 263 W/m² | - |
| 1777754971 | 23.89° C | 47% | 1022.2 hPa | 0 mm | - | 603 W/m² | - |
| 1777754667 | 23.89° C | 46% | 1022.3 hPa | 0 mm | - | 96 W/m² | - |
* Rain latest hour (hover to see other rain measurements)
** Current wind speed in m/s (hover to see current wind gust speed)